Location: ShareBrained
(45.5589°N, 122.6491°W)
Time: 10:00:47
(UTC-07:00)

NOAA 19 - Visible Passes

Search period start: 21 September 2023 00:00
Search period end: 01 October 2023 00:00
Orbit: 840 x 859 km, 99.1° (Epoch: 21 September)

Date Brightness Start Highest point End Pass type
(mag) Time Alt. Az. Time Alt. Az. Time Alt. Az.
21 Sep 5.9 20:25:15 19° ESE 20:28:28 35° ENE 20:33:25 10° N visible
21 Sep 6.4 22:07:14 29° SW 22:09:03 36° W 22:14:07 10° NNW visible
22 Sep 6.1 20:13:07 16° ESE 20:16:27 29° ENE 20:21:06 10° N visible
22 Sep 6.0 21:55:07 35° SW 21:56:52 46° W 22:02:10 10° NNW visible
23 Sep 6.4 20:01:00 13° ESE 20:04:28 23° ENE 20:08:44 10° N visible
23 Sep 5.6 21:43:00 41° SSW 21:44:42 58° WSW 21:50:09 10° NNW visible
24 Sep 6.6 19:48:53 11° E 19:52:30 19° ENE 19:56:17 10° NNE visible
24 Sep 5.3 21:30:53 46° S 21:32:33 74° WSW 21:38:05 10° NNW visible
25 Sep 6.8 19:37:25 10° E 19:40:33 16° NE 19:43:43 10° NNE visible
25 Sep 5.1 21:18:46 48° SSE 21:20:25 89° ENE 21:25:58 10° NNW visible
25 Sep 7.7 23:00:45 13° W 23:01:49 13° W 23:04:24 10° WNW visible
26 Sep 5.1 21:06:39 46° SE 21:08:18 72° ENE 21:13:49 10° N visible
26 Sep 7.4 22:48:39 17° WSW 22:49:30 17° W 22:53:04 10° NW visible
27 Sep 5.3 20:54:32 40° SE 20:56:14 57° ENE 21:01:38 10° N visible
27 Sep 7.1 22:36:31 21° WSW 22:37:14 22° W 22:41:26 10° NW visible
28 Sep 5.5 20:42:24 35° ESE 20:44:09 46° ENE 20:49:25 10° N visible
28 Sep 6.8 22:24:24 27° WSW 22:24:58 28° W 22:29:40 10° NW visible
29 Sep 5.8 20:30:17 29° ESE 20:32:07 37° ENE 20:37:09 10° N visible
29 Sep 6.5 22:12:17 34° WSW 22:12:45 35° W 22:17:47 10° NNW visible
30 Sep 6.1 20:18:10 24° E 20:20:06 30° ENE 20:24:50 10° N visible
30 Sep 6.1 22:00:10 43° WSW 22:00:33 44° W 22:05:49 10° NNW visible
